Rijeka, Croatia

10:56 PM CEST on October 23, 2017 (GMT +0200)
Rijeka

Weather History for LDRI - August, 2017

Change the Weather History Date:

Sunday, August 13, 2017

  Actual Average Record
Temperature  
Mean Temperature 76 °F -  
Max Temperature 86 °F - - ()
Min Temperature 66 °F - - ()
Cooling Degree Days 11    
Growing Degree Days 26 (Base 50)    
Moisture  
Dew Point 53 °F    
Average Humidity 46    
Maximum Humidity 64    
Minimum Humidity 27    
Precipitation  
Precipitation 0.00 in - - ()
Sea Level Pressure  
Sea Level Pressure 30.04 in    
Wind  
Wind Speed 7 mph ()    
Max Wind Speed 14 mph    
Max Gust Speed 18 mph    
Visibility 6.2 miles    
Events      
T = Trace of Precipitation, MM = Missing Value Source: Averaged Metar Reports

Daily Weather History Graph

Daily Weather History Graph

Search for Another Location

Airport or City:

Trip Planner

Search our weather history database for the weather conditions in past years. The results will help you decide how hot, cold, wet, or windy it might be!

Date:

Astronomy

Aug. 13, 2017 Rise Set
Actual Time 6:00 AM CEST 8:11 PM CEST
Civil Twilight 5:28 AM CEST 8:43 PM CEST
Nautical Twilight 4:48 AM CEST 9:23 PM CEST
Astronomical Twilight 4:03 AM CEST 10:08 PM CEST
Moon 11:18 PM CEST (8/13) 11:56 AM CEST (8/13)
Length of Visible Light 15h 15m
Length of Day
14h 11m
Waning Gibbous, 68% of the Moon is Illuminated
Aug 13
Waning Gibbous
Aug 15
Last Quarter
Aug 21
New
Aug 29
First Quarter
Sep 6
Full

Hourly Weather History & Observations

Time (CEST) Temp. Heat Index Dew Point Humidity Pressure Visibility Wind Dir Wind Speed Gust Speed Precip Events Conditions
12:00 AM 69.8 °F - 53.6 °F 56% 30.01 in - NNE 8.1 mph - N/A   Clear
12:30 AM 69.8 °F - 53.6 °F 56% 30.01 in - NE 6.9 mph 18.4 mph N/A   Clear
1:00 AM 71.6 °F - 51.8 °F 50% 30.01 in - ENE 10.4 mph - N/A   Clear
1:30 AM 69.8 °F - 53.6 °F 56% 30.01 in - WSW 6.9 mph - N/A   Clear
2:00 AM 71.6 °F - 53.6 °F 53% 30.01 in - Variable 4.6 mph - N/A   Clear
2:30 AM 68.0 °F - 53.6 °F 60% 30.01 in - SSW 5.8 mph - N/A   Clear
3:00 AM 69.8 °F - 51.8 °F 53% 30.01 in - NNW 8.1 mph - N/A   Clear
3:30 AM 69.8 °F - 51.8 °F 53% 30.01 in - North 10.4 mph - N/A   Clear
4:00 AM 68.0 °F - 53.6 °F 60% 30.01 in - North 9.2 mph - N/A   Clear
4:30 AM 68.0 °F - 53.6 °F 60% 30.04 in - North 8.1 mph - N/A   Clear
5:00 AM 68.0 °F - 53.6 °F 60% 30.04 in - NNW 6.9 mph - N/A   Clear
5:30 AM 68.0 °F - 53.6 °F 60% 30.04 in - North 6.9 mph - N/A   Clear
6:00 AM 66.2 °F - 53.6 °F 64% 30.04 in - North 8.1 mph - N/A   Clear
6:30 AM 66.2 °F - 53.6 °F 64% 30.04 in - NNW 11.5 mph - N/A   Clear
7:00 AM 68.0 °F - 51.8 °F 56% 30.04 in - North 11.5 mph - N/A   Clear
7:30 AM 69.8 °F - 51.8 °F 53% 30.04 in - NNE 10.4 mph - N/A   Clear
8:00 AM 71.6 °F - 53.6 °F 53% 30.04 in - NNW 6.9 mph - N/A   Clear
8:30 AM 71.6 °F - 51.8 °F 50% 30.04 in - North 4.6 mph - N/A   Clear
9:00 AM 73.4 °F - 51.8 °F 47% 30.06 in - Variable 4.6 mph - N/A   Clear
9:30 AM 75.2 °F - 53.6 °F 47% 30.06 in - WNW 6.9 mph - N/A   Clear
10:00 AM 75.2 °F - 55.4 °F 50% 30.06 in - West 6.9 mph - N/A   Clear
10:30 AM 75.2 °F - 53.6 °F 47% 30.06 in 6.2 mi West 5.8 mph - N/A   Partly Cloudy
11:00 AM 78.8 °F - 50.0 °F 36% 30.06 in 6.2 mi North 10.4 mph - N/A   Partly Cloudy
11:30 AM 80.6 °F - 48.2 °F 32% 30.06 in 6.2 mi NNE 10.4 mph - N/A   Partly Cloudy
12:00 PM 80.6 °F - 48.2 °F 32% 30.06 in 6.2 mi NNE 13.8 mph - N/A   Partly Cloudy
12:30 PM 82.4 °F - 48.2 °F 30% 30.04 in 6.2 mi North 12.7 mph - N/A   Partly Cloudy
1:00 PM 82.4 °F - 48.2 °F 30% 30.04 in 6.2 mi NNE 10.4 mph - N/A   Partly Cloudy
1:30 PM 82.4 °F - 50.0 °F 32% 30.04 in 6.2 mi NNW 10.4 mph - N/A   Partly Cloudy
2:00 PM 82.4 °F - 48.2 °F 30% 30.04 in 6.2 mi North 12.7 mph - N/A   Partly Cloudy
2:30 PM 84.2 °F - 51.8 °F 33% 30.04 in 6.2 mi West 6.9 mph - N/A   Partly Cloudy
3:00 PM 86.0 °F - 48.2 °F 27% 30.04 in 6.2 mi North 6.9 mph - N/A   Partly Cloudy
3:30 PM 84.2 °F - 50.0 °F 30% 30.01 in 6.2 mi NNE 8.1 mph - N/A   Partly Cloudy
4:00 PM 86.0 °F - 51.8 °F 31% 30.01 in 6.2 mi West 6.9 mph - N/A   Partly Cloudy
4:30 PM 84.2 °F - 51.8 °F 33% 30.01 in 6.2 mi Variable 4.6 mph - N/A   Partly Cloudy
5:00 PM 86.0 °F - 50.0 °F 29% 30.01 in 6.2 mi Variable 6.9 mph - N/A   Partly Cloudy
5:30 PM 86.0 °F 84.9 °F 57.2 °F 37% 30.01 in 6.2 mi Variable 5.8 mph - N/A   Partly Cloudy
6:00 PM 82.4 °F 82.9 °F 60.8 °F 48% 30.04 in 6.2 mi WNW 6.9 mph - N/A   Partly Cloudy
6:30 PM 82.4 °F 82.0 °F 57.2 °F 42% 30.04 in 6.2 mi SW 8.1 mph - N/A   Partly Cloudy
7:00 PM 82.4 °F 82.0 °F 57.2 °F 42% 30.04 in 6.2 mi SW 8.1 mph - N/A   Partly Cloudy
7:30 PM 80.6 °F 80.8 °F 57.2 °F 45% 30.04 in 6.2 mi WSW 4.6 mph - N/A   Partly Cloudy
8:30 PM 77.0 °F - 59.0 °F 54% 30.06 in - NNE 4.6 mph - N/A   Clear
9:00 PM 75.2 °F - 59.0 °F 57% 30.06 in - Variable 2.3 mph - N/A   Clear
9:30 PM 75.2 °F - 55.4 °F 50% 30.09 in - Variable 2.3 mph - N/A   Clear
10:30 PM 77.0 °F - 53.6 °F 44% 30.09 in - North 8.1 mph - N/A   Clear
11:00 PM 75.2 °F - 53.6 °F 47% 30.09 in - NNE 6.9 mph - N/A   Clear
11:30 PM 75.2 °F - 55.4 °F 50% 30.09 in - NNE 6.9 mph - N/A   Clear